This is the latest recevied weather packets stored in our database for station/object OE3PDB-3. If no packets are shown the sender has not sent any weather packets the latest 10 day(s).
| Time | Temp. | Humidity | Pressure | Rain* | Wind** | Luminosity | Snow |
|---|---|---|---|---|---|---|---|
| 1777614050 | 7.78° C | 46% | 1027.8 hPa | 0 mm | - | - | - |
| 1777613450 | 7.78° C | 47% | 1027.7 hPa | 0 mm | - | - | - |
| 1777612850 | 7.22° C | 50% | 1027.8 hPa | 0 mm | - | - | - |
| 1777612250 | 4.44° C | 53% | 1027.7 hPa | 0 mm | - | - | - |
| 1777611650 | 3.89° C | 52% | 1027.5 hPa | 0 mm | - | - | - |
| 1777611050 | 3.89° C | 52% | 1027.5 hPa | 0 mm | - | - | - |
| 1777610450 | 3.89° C | 52% | 1027.3 hPa | 0 mm | - | - | - |
| 1777609850 | 3.89° C | 52% | 1027.2 hPa | 0 mm | - | - | - |
| 1777609251 | 3.33° C | 52% | 1027.2 hPa | 0 mm | - | - | - |
| 1777608651 | 3.89° C | 51% | 1027.2 hPa | 0 mm | - | - | - |
| 1777608051 | 3.89° C | 51% | 1027.1 hPa | 0 mm | - | - | - |
| 1777607451 | 3.89° C | 51% | 1027.2 hPa | 0 mm | - | - | - |
| 1777606851 | 3.89° C | 51% | 1026.9 hPa | 0 mm | - | - | - |
| 1777606251 | 3.89° C | 50% | 1026.9 hPa | 0 mm | - | - | - |
| 1777605651 | 3.89° C | 50% | 1027 hPa | 0 mm | - | - | - |
| 1777605051 | 3.89° C | 50% | 1026.9 hPa | 0 mm | - | - | - |
| 1777604451 | 3.89° C | 49% | 1027 hPa | 0 mm | - | - | - |
| 1777603851 | 3.89° C | 49% | 1027 hPa | 0 mm | - | - | - |
| 1777603251 | 3.89° C | 49% | 1027.1 hPa | 0 mm | - | - | - |
| 1777602651 | 3.89° C | 49% | 1027.1 hPa | 0 mm | - | - | - |
| 1777602051 | 3.89° C | 49% | 1027.2 hPa | 0 mm | - | - | - |
| 1777601451 | 3.89° C | 48% | 1027.2 hPa | 0 mm | - | - | - |
| 1777600251 | 3.89° C | 48% | 1027.4 hPa | 0 mm | - | - | - |
| 1777587050 | 5.56° C | 44% | 1027.1 hPa | 0 mm | - | - | - |
| 1777586450 | 5.56° C | 44% | 1027.2 hPa | 0 mm | - | - | - |
* Rain latest hour (hover to see other rain measurements)
** Current wind speed in m/s (hover to see current wind gust speed)